936  
NZUS93 KARX 190210  
HRRWXR  
 
CURRENT HOURLY OBSERVATIONS ACROSS  
MUCH OF THE UPPER MISSISSIPPI VALLEY  
NATIONAL WEATHER SERVICE LA CROSSE WI  
800 PM CST FRI JAN 18 2019  
 
   
..SOUTHEAST MINNESOTA
 
 
 
CITY SKY/WX TMP DP RH WIND PRES REMARKS  
ROCHESTER LGT SNOW 10 8 92 N15 30.19R FOG WCI -7  
ROCHESTER/MAYO CLOUDY 11 8 87 NE9G21 30.22R WCI -2  
WINONA LGT SNOW 16 12 86 N3 30.27S  
AUSTIN LGT SNOW 12 5 73 N12G21 30.18S WCI -2  
ALBERT LEA NOT AVBL  
DODGE CENTER LGT SNOW 9 7 92 N14 30.19S WCI -8  
PRESTON N/A 11 8 87 N10 30.18R WCI -3  
OWATONNA LGT SNOW 9 5 85 N16 30.23R WCI -9  
FARIBAULT NOT AVBL  

 
   
..ELSEWHERE IN MINNESOTA
 
 
 
CITY SKY/WX TMP DP RH WIND PRES REMARKS  
MINNEAPOLIS LGT SNOW 7 1 76 N16G26 30.33R WCI -11  
INTNL FALLS FAIR -25 -30 78 CALM 30.44R  
DULUTH FAIR -4 -18 51 N12 30.33S WCI -22  
RED WING LGT SNOW 12 3 67 NE9 30.29R WCI 0  
REDWOOD FALLS LGT SNOW 4 -2 76 N10 30.33R WCI -11  
MANKATO LGT SNOW 6 2 83 N20 30.28R FOG WCI -14  
WORTHINGTON LGT SNOW 5 2 87 N20G28 30.21R FOG WCI -15  
FAIRMONT NOT AVBL  

 
   
..SOUTHWEST WISCONSIN
 
 
 
CITY SKY/WX TMP DP RH WIND PRES REMARKS  
LA CROSSE LGT SNOW 16 12 84 N6 30.25R VSB 1 WCI 7  
PRAIRIE DU CHI LGT SNOW 17 13 84 NE6 30.16F VSB 1 WCI 9  
BOSCOBEL SNOW 18 14 84 NE7 30.19S VSB 1/2 WCI 9  
LONE ROCK LGT SNOW 17 14 88 NE12 30.20S VSB 1 WCI 4  
PLATTEVILLE CLOUDY 18 17 96 NE18G24 30.12S WCI 3  
FORT MC COY LGT SNOW 15 12 90 CALM 30.24S  
CAMP DOUGLAS LGT SNOW 15 13 91 E3 30.22S FOG  
MAUSTON-NEW LI LGT SNOW 15 13 88 CALM 30.22R  
VIROQUA CLOUDY 14 13 97 NE12 30.17S WCI 0  
WIS DELLS LGT SNOW 15 12 89 NE9 30.20R VSB 3/4 WCI 3  

 
   
..ELSEWHERE IN WISCONSIN
 
 
 
CITY SKY/WX TMP DP RH WIND PRES REMARKS  
MILWAUKEE LGT SNOW 24 19 81 NE14G23 30.18S VSB 1 WCI 12  
MADISON LGT SNOW 17 13 84 NE10 30.19S VSB 3/4 WCI 5  
GREEN BAY CLOUDY 15 6 67 NE20G29 30.29R WCI -2  
EAU CLAIRE LGT SNOW 11 6 81 NE7 30.28S WCI 0  
BLACK RVR FLS LGT SNOW 15 9 75 N5 30.25R WCI 8  
MEDFORD CLOUDY 10 -1 62 NE9 30.22S WCI -3  
WAUSAU CLOUDY 13 1 59 NE8 30.22R WCI 2  
WIS RAPIDS LGT SNOW 15 6 67 NE8 30.24R WCI 4  
MARSHFIELD LGT SNOW 13 8 81 NE9 30.21S WCI 1  
RICE LAKE MOCLDY 9 1 69 N14 30.31S WCI -8  

 
   
..NORTHEAST IOWA
 
 
 
CITY SKY/WX TMP DP RH WIND PRES REMARKS  
WATERLOO LGT SNOW 18 15 88 NE15 30.12R VSB 3/4 WCI 4  
DUBUQUE LGT SNOW 18 14 84 NE18G25 30.09F VSB 3/4 WCI 2  
DECORAH LGT SNOW 14 14 100 NE10G16 30.14S VSB 3/4 WCI 1  
MASON CITY LGT SNOW 12 10 92 NE18 30.16R FOG WCI -6  
CHARLES CITY LGT SNOW 14 10 85 NE18 30.14R WCI -3  
OELWEIN NOT AVBL  

 
   
..ELSEWHERE IN IOWA
 
 
 
CITY SKY/WX TMP DP RH WIND PRES REMARKS  
DES MOINES SNOW 21 19 92 N18G28 30.02R VSB 1/2 WCI 6  
IOWA CITY LGT SNOW 24 21 88 NE18G30 30.05S FOG WCI 10  
FORT DODGE LGT SNOW 15 13 91 NE16G22 30.12R FOG WCI -1  
MARSHALLTOWN SNOW 19 17 92 NE17 30.07R VSB 1/2 WCI 4  
CEDAR RAPIDS SNOW 21 20 96 NE17 30.04S VSB 1/2 WCI 7  

 
   
..NORTHERN ILLINOIS
 
 
 
CITY SKY/WX TMP DP RH WIND PRES REMARKS  
CHICAGO-OHARE CLOUDY 28 23 81 E14G25 30.12S WCI 17  
CHICAGO-MIDWAY FLURRIES 31 25 78 E16G26 30.12F WCI 20  
MOLINE LGT SNOW 27 24 89 E15 30.04S FOG WCI 15  
ROCKFORD CLOUDY 23 18 81 NE13 30.15R WCI 11  
PEORIA CLOUDY 32 27 81 E12 30.01F WCI 23  

 
 
NOTE: "FAIR" INDICATES FEW OR NO CLOUDS BELOW 12,000 FEET WITH NO  
SIGNIFICANT WEATHER AND/OR OBSTRUCTIONS TO VISIBILITY. WIND  
SPEEDS ARE IN MILES-PER-HOUR.  
 
 
CLICK HERE TO GO TO PREVIOUS BULLETINS.

The Nexlab WI Page
The Nexlab IA Page
The Nexlab MN Page Main Text Page